yesterdaystractors.com alexa rank chart, yesterdaystractors.com alexa rank daily changes

yesterdaystractors.com alexa rank chart, yesterdaystractors.com alexa rank daily changes

yesterdaystractors.com
Actual rank:
104 941

RANK HISTORY

Date Rank Diff
2017/12/14 104 941 +3 304
2017/12/13 101 637 +2 604
2017/12/12 99 033 +296
2017/12/11 98 737 +800
2017/12/10 97 937 +160
2017/12/09 97 777 +784
2017/12/08 96 993 -139
2017/12/07 97 132 +2 300
2017/12/06 94 832 +1 785
2017/12/05 93 047 +803
2017/12/04 92 244 -2 042
2017/12/03 94 286 +319
2017/12/02 93 967 +1 346
2017/12/01 92 621 -310
2017/11/30 92 931 +2 685
2017/11/29 90 246 +1 164
2017/11/28 89 082 +855
2017/11/27 88 227 -2 124
2017/11/26 90 351 -604
2017/11/25 90 955 +769
2017/11/24 90 186 +855
2017/11/23 89 331 +1 250
2017/11/22 88 081 -877
2017/11/21 88 958 +227
2017/11/20 88 731 -1 554
2017/11/19 90 285 +1 040
2017/11/18 89 245 +303
2017/11/17 88 942 +906
2017/11/16 88 036 +2 848
2017/11/15 85 188 +695
2017/11/14 84 493 -1 410
2017/11/13 85 903 -998
2017/11/12 86 901 +197
2017/11/11 86 704 +154
2017/11/10 86 550 +1 546
2017/11/09 85 004 +2 339
2017/11/08 82 665 +839
2017/11/07 81 826 -604
2017/11/06 82 430 -1 613
2017/11/05 84 043 +862
2017/11/04 83 181 +1 559
2017/11/03 81 622 +709
2017/11/02 80 913 +464
2017/11/01 80 449 +402
2017/10/31 80 047 +864
2017/10/30 79 183 -2 532
2017/10/29 81 715 +277
2017/10/28 81 438 -471
2017/10/27 81 909 +88
2017/10/26 81 821 +1 806
2017/10/25 80 015 +1 224
2017/10/24 78 791 +49
2017/10/23 78 742 +372
2017/10/22 78 370 +179
2017/10/21 78 191 +959
2017/10/20 77 232 +2 298
2017/10/19 74 934 +394
2017/10/18 74 540 +967
2017/10/17 73 573 +503
2017/10/16 73 070

WIDGET FOR YOUR SITE

DOMAINS WITH THE NEAREST RANK

Domain Rank
notre-planete.info 104 936
windowsupdate.com 104 937
runnerspace.com 104 938
ncc-g.com 104 939
ascensionwithearth.com 104 940
yesterdaystractors.com 104 941
pawapuro.xyz 104 942
znanje.hr 104 943
taohv.cn 104 944
dspayments.com 104 945
protetor.me 104 946

DOMAINS WITH THE NEAREST RANK BY TLD .com

Domain Rank
guiadosquadrinhos.com 104 934
windowsupdate.com 104 937
runnerspace.com 104 938
ncc-g.com 104 939
ascensionwithearth.com 104 940
yesterdaystractors.com 104 941
dspayments.com 104 945
xianbey.com 104 947
shonarbd.com 104 954
ganarvales-gratis.com 104 958
menprovement.com 104 968